Regional Weather Roundup
Issued by NWS

Home | Current Version | Previous Version | Text Only | Print | Product List | Glossary Off
Versions: 1 2 3 4 5 6 7 8 9 10 11 12 13 14 15 16 17 18 19 20 21 22 23 24 25 26 27 28 29 30 31 32 33 34 35 36 37 38 39 40 41 42 43 44 45 46 47 48 49 50

000
ASUS45 KTFX 212119
RWRMT
MONTANA HOURLY WEATHER ROUNDUP
NATIONAL WEATHER SERVICE GREAT FALLS MT
219 PM MST SUN DEC 21 2014

NOTE: "FAIR" INDICATES FEW OR NO CLOUDS BELOW 12000 FEET WITH NO
SIGNIFICANT WEATHER AND/OR OBSTRUCTIONS TO VISIBILITY.

* THESE STATIONS ARE NOT UNDER NWS QUALITY CONTROL. THEY DO NOT
   REPORT WEATHER SUCH AS PRECIPITATION OR FOG.

MTZ001>007-043-212200-
WEST OF THE DIVIDE
CITY           SKY/WX    TMP DP  RH WIND       PRES   REMARKS
KALISPELL      PTSUNNY   45  30  56 W10       29.63R
MISSOULA       LGT RAIN  37  36  96 NW18      29.72R WCI  27
BUTTE          CLOUDY    34  28  79 NW8       29.65R WCI  27
MULLAN PASS    PTSUNNY  N/A N/A N/A N/A       29.71R
* EUREKA APT   PTSUNNY   48  27  44 W5G16     29.62R
* HAMILTON APT CLOUDY    41  36  82 SE8       29.71S
* LIBBY APT    PTCLDY    45  28  51 W3        29.69R
* LINCOLN      N/A       42  29  60 W10G28     N/A
* POLSON       N/A       40  30  68 W3G10      N/A
* RONAN APT    PTSUNNY   48  34  59 SW15G23    N/A
* SEELEY LAKE  N/A       43  27  53 W11G30     N/A
* THOMP F APT  PTSUNNY   33  32  96 E2G13      N/A
$$

MTZ008-052>055-212200-
SOUTHWEST MONTANA
CITY           SKY/WX    TMP DP  RH WIND       PRES   REMARKS
BOZEMAN        PTSUNNY   41  28  60 NW13      29.61R
DILLON         CLOUDY    39  28  65 W22G35    29.69R WCI  29
* W YELLOWSTON PTSUNNY   33  29  85 W4         N/A
* THREE FORKS  PTSUNNY   46  34  63 W17G25     N/A
* BOULDER HILL N/A       37  17  44 N10G21     N/A   WCI  30
* MONIDA PASS  N/A       32  24  72 NW29G37    N/A   WCI  18
* RAYNOLDS PAS N/A       30  28  92 NW15G32    N/A   WCI  19
* WHITEHALL    N/A       44  29  56 NW12G21    N/A
* WISE RIVER   N/A       35  27  73 NW17G27    N/A   WCI  25
$$

MTZ009>010-012-014-046-048-049-054-212200-
EAST SLOPES AND CENTRAL MONTANA
CITY           SKY/WX    TMP DP  RH WIND       PRES   REMARKS
CUT BANK       CLOUDY    41  30  65 W25       29.43R
GREAT FALLS    CLOUDY    45  25  45 W24G30    29.44R
HELENA         PTCLDY    43  27  53 W38G49    29.53R
MALMSTROM AFB  CLOUDY    46  25  44 W18G28    29.46R
* CONRAD       CLOUDY    43  34  71 SW16G23    N/A
* DEARBORN     N/A       48  20  33 S17G29     N/A
* EAST GLACIER N/A       33  30  89 W22G32     N/A   WCI  21
* MONARCH      N/A       37  19  48 W34G42     N/A   WCI  24
* PENDROY      N/A       39  26  60 W30G45     N/A   WCI  27
* ROGERS PASS  N/A       36  21  54 NW5G24     N/A   WCI  32
* SWEET GRASS  N/A       39  29  67 NW21G26    N/A   WCI  29
* WHITE SULPH  N/A       40  23  51 NW18G29    N/A   WCI  31
$$

MTZ011-013-016-021-035-040-045-047-050-051-212200-
NORTH CENTRAL MONTANA
CITY           SKY/WX    TMP DP  RH WIND       PRES   REMARKS
HAVRE          CLOUDY    43  34  71 W8        29.36R
LEWISTOWN      CLOUDY    45  27  49 W29G40    29.40R
* N BAR RANCH  CLOUDY    46  21  37 NW30G44   29.37R
* CHINOOK      CLOUDY    45  34  65 W15G22    29.33R
* CHESTER      N/A       42  30  63 W17G26     N/A
* DENTON       N/A       46  26  46 W35G50     N/A
* GEYSER       N/A       42  23  47 W31G47     N/A
* JUDITH GAP   N/A       44  22  42 NW28G34    N/A
* LOMA         N/A       48  30  50 W19G24     N/A
$$

MTZ017>020-022>027-061-062-212200-
NORTHEAST MONTANA
CITY           SKY/WX    TMP DP  RH WIND       PRES   REMARKS
GLASGOW        LGT RAIN  34  30  85 E3        29.30S
GLENDIVE       CLOUDY    34  32  92 S5        29.34S WCI  29
JORDAN         CLOUDY    41  39  93 CALM      29.33R
SIDNEY         CLOUDY    36  28  73 CALM      29.35F
WOLF POINT     CLOUDY    34  27  76 CALM      29.31F
* BEAVER HILL  N/A       36  32  85 S11        N/A   WCI  28
* CIRCLE       N/A       38  36  93 SW5G10     N/A   WCI  34
* LINDSAY DVD  N/A       37  35  92 SW14       N/A   WCI  28
* PLENTYWOOD A PTSUNNY   32  28  85 CALM      29.31R
* POPLAR APT   CLOUDY    36  28  73 CALM      29.31S
* SACO         N/A       31  30  96 N/A        N/A
$$

MTZ028>042-056>058-212200-
SOUTHCENTRAL AND SOUTHEAST MONTANA
CITY           SKY/WX    TMP DP  RH WIND       PRES   REMARKS
BAKER          LGT RAIN  39  37  93 S7        29.34F WCI  34
BILLINGS       PTSUNNY   52  21  30 W33G47    29.42R
LIVINGSTON     LGT RAIN  45  37  74 W16       29.53R
MILES CITY     CLOUDY    39  34  82 W5        29.34R WCI  35
* BIG TIMBER A PTCLDY    45  25  45 W30G44    29.50R
* FORSYTH APT  CLOUDY    45  36  71 W7        29.36R
* LAUREL APT   PTCLDY    52  28  40 W18G35     N/A
* ROUNDUP APT  PTSUNNY   48  25  41 SW23G37    N/A
* ALZADA       N/A       39  35  86 W2         N/A
* HYSHAM       N/A       48  29  48 W7         N/A
* LAME DEER    N/A       41  33  73 NW20G34    N/A
* REED POINT   N/A       48  26  42 W24G37     N/A
* ROSCOE HILL  N/A       43  21  42 W13G32     N/A
$$

REGIONAL REPORTS...DAKOTAS
CITY           SKY/WX    TMP DP  RH WIND       PRES   REMARKS
WILLISTON      CLOUDY    36  27  70 S6        29.33F WCI  31
DICKINSON      CLOUDY    43  28  56 S10       29.33F
BEACH          N/A       37  37 100 SW15      29.35S VSB 3    WCI  28
CROSBY         SUNNY     36  30  79 E7        29.34S WCI  30
TIOGA          PTSUNNY   36  34  92 SE5       29.36F WCI  32
WATFORD CITY   PTCLDY    37  28  70 S6        29.32S WCI  32
BISMARCK       PTCLDY    37  28  70 SE8       29.43F WCI  31
GRAND FORKS    FOG       32  30  92 S18       29.59F VSB 3    WCI  21
FARGO          FOG       34  30  85 SE13G25   29.59F WCI  25
BUFFALO SD     CLOUDY    39  28  65 SW6       29.32F WCI  35
RAPID CITY     CLOUDY    48  27  44 N10       29.38S
$$

REGIONAL REPORTS...WYOMING/IDAHO/WASHINGTON
CITY           SKY/WX    TMP DP  RH WIND       PRES   REMARKS
GILLETTE       CLOUDY    43  34  71 SW8       29.41S
SHERIDAN       SUNNY     45  28  51 N18G29    29.40R
CODY           CLOUDY    36  28  73 NW8       29.51R WCI  30
YELLOWSTONE LA PTSUNNY   30  25  82 W12G21    29.63R WCI  20
SALMON         CLOUDY    45  27  49 SW8       29.75R
MULLAN PASS    PTSUNNY  N/A N/A N/A N/A       29.71S
SAND POINT     PTCLDY    46  34  63 SW9G16    29.74R
SPOKANE        PTCLDY    46  37  71 W18G29    29.79S
$$

REGIONAL REPORTS...ALBERTA
CITY           SKY/WX    TMP DP  RH WIND       PRES   REMARKS
CALGARY        PTSUNNY   37  27  67 N6        29.40R WCI  32
LETHBRIDGE     PTSUNNY   41  30  65 W25G33    29.41R
MEDICINE HAT   N/A       34  32  92 W12       29.34R WCI  25
EDMONTON       LGT SNOW  23  19  85 W9        29.42R WCI  13
WATERTON GATE  N/A       41  28  60 SW16G26    N/A
CARDSTON       N/A       41  30  65 W18G25     N/A
MILK RIVER     N/A       41  30  65 NW22G32    N/A
$$

REGIONAL REPORTS...SASKATCHEWAN
CITY           SKY/WX    TMP DP  RH WIND       PRES   REMARKS
SWIFT CURRENT  CLOUDY    36  30  79 SW8       29.23R WCI  30
REGINA         SUNNY     25  25 100 SE13      29.34S WCI  13
VAL MARIE      N/A       32  32 100 SW9        N/A   WCI  24
ASSINIBOIA     N/A       34  27  76 SE2        N/A
CORONACH       N/A       32  27  82 S6         N/A   WCI  26

$$




USA.gov is the U.S. government's official web portal to all federal, state and local government web resources and services.